Location: Pine Creek
(45.5072°N, 110.5649°W)
Time: 17:29:30
(UTC+00:00)

Envisat - Pass Details

Date: 21 January 2022
Orbit: 764 x 765 km, 98.2° (Epoch: 19 May)

Event Time Altitude Azimuth Distance (km) Brightness Sun altitude
Rises 10:45:21 0° 34° (NNE) 3,239 6.8 -43.1°
Reaches altitude 10° 10:49:24 10° 66° (ENE) 2,306 6.1 -42.5°
Maximum altitude 10:51:11 12° 87° (E) 2,182 5.9 -42.2°
Drops below altitude 10° 10:52:59 10° 108° (ESE) 2,300 5.9 -41.9°
Sets 10:56:59 0° 139° (SE) 3,219 6.5 -41.2°
